Location: Karcze
(52.0945°N, 22.4786°E)
Time: 01:46:56
(UTC+00:00)

Cosmos 1933 Rocket - Pass Details

Date: 14 July 2020
Orbit: 607 x 629 km, 82.5° (Epoch: 06 August)

Event Time Altitude Azimuth Distance (km) Brightness Sun altitude
Exits shadow 00:23:24 17° 227° (SW) 1,536 5.0 -12.6°
Maximum altitude 00:26:17 38° 288° (WNW) 936 4.4 -12.4°
Drops below altitude 10° 00:30:22 10° 357° (N) 1,976 7.1 -12.2°
Sets 00:32:44 0° 6° (N) 2,888 8.4 -12.0°
